Time,TemperatureF,DewpointF,PressureIn,WindDirection,WindDirectionDegrees,WindSpeedMPH,WindSpeedGustMPH,Humidity,HourlyPrecipIn,Conditions,Clouds,dailyrainin,SoftwareType,DateUTC
2013-02-10 00:00:00,23.0,-10.2,30.33,NNE,22,6.0,11.0,22,33.30,,---,0.00,VWS V14.00,2013-02-10 05:00:00,
2013-02-10 00:01:00,23.0,-10.2,30.33,WNW,292,4.0,10.3,22,33.30,,---,0.00,VWS V14.00,2013-02-10 05:01:00,
2013-02-10 00:04:00,22.8,-10.3,30.33,NNW,338,8.5,8.5,22,33.30,,---,0.00,VWS V14.00,2013-02-10 05:04:00,
2013-02-10 03:19:00,19.8,-12.9,30.33,NW,315,2.0,4.0,22,0.00,,---,0.00,VWS V14.00,2013-02-10 08:19:00,
2013-02-10 03:20:00,19.8,-12.9,30.33,North,0,3.1,3.8,22,0.00,,---,0.00,VWS V14.00,2013-02-10 08:20:00,
2013-02-10 03:24:00,19.8,-12.9,30.36,NW,315,1.3,2.9,22,0.00,,---,0.00,VWS V14.00,2013-02-10 08:24:00,
2013-02-10 03:26:00,19.8,-12.9,30.36,NNW,338,2.7,2.7,22,0.00,,---,0.00,VWS V14.00,2013-02-10 08:26:00,
2013-02-10 03:27:00,19.8,-12.9,30.36,NNW,338,2.5,2.7,22,0.00,,---,0.00,VWS V14.00,2013-02-10 08:27:00,
2013-02-10 03:29:00,19.6,-13.1,0.00,WNW,292,1.6,690.1,22,99.99,,---,0.00,VWS V14.00,2013-02-10 08:29:00,
2013-02-10 03:30:00,19.6,-13.1,0.00,NW,315,0.0,690.1,22,99.99,,---,99.99,VWS V14.00,2013-02-10 08:30:00,
2013-02-10 03:31:00,19.6,-13.1,0.00,NNW,338,3.6,690.1,22,99.99,,---,0.00,VWS V14.00,2013-02-10 08:31:00,
2013-02-10 03:32:00,19.6,-13.1,0.00,SSW,202,5.8,690.1,22,99.99,,---,0.00,VWS V14.00,2013-02-10 08:32:00,
2013-02-10 03:34:00,19.6,-13.1,0.00,NNW,338,4.7,690.1,22,99.99,,---,99.99,VWS V14.00,2013-02-10 08:34:00,
2013-02-10 03:35:00,19.6,-13.1,0.00,SE,135,3.4,744.7,22,99.99,,---,99.99,VWS V14.00,2013-02-10 08:35:00,
2013-02-10 03:37:00,19.4,-12.3,0.00,SW,225,5.6,690.1,23,99.99,,---,0.00,VWS V14.00,2013-02-10 08:37:00,
2013-02-10 03:40:00,33.1,0.2,0.00,North,0,2.0,690.1,24,99.99,,---,0.00,VWS V14.00,2013-02-10 08:40:00,
2013-02-10 03:42:00,19.4,-12.3,0.00,WNW,292,5.8,690.1,23,0.05,,---,99.99,VWS V14.00,2013-02-10 08:42:00,
2013-02-10 03:45:00,78.1,78.1,0.00,WNW,292,4.0,690.3,100,99.99,,---,0.00,VWS V14.00,2013-02-10 08:45:00,
2013-02-10 03:48:00,19.6,-13.1,0.00,North,0,2.9,744.7,22,0.05,,---,99.99,VWS V14.00,2013-02-10 08:48:00,
2013-02-10 03:50:00,19.6,-13.1,0.00,NW,315,0.9,744.7,22,0.05,,---,99.99,VWS V14.00,2013-02-10 08:50:00,
2013-02-10 03:51:00,19.6,-13.1,0.00,WNW,292,3.8,690.3,22,99.99,,---,0.00,VWS V14.00,2013-02-10 08:51:00,
2013-02-10 03:53:00,19.6,-13.1,0.00,SE,135,3.4,744.7,22,0.05,,---,99.99,VWS V14.00,2013-02-10 08:53:00,
2013-02-10 03:54:00,19.6,-13.1,0.00,SE,135,3.4,744.7,22,0.05,,---,99.99,VWS V14.00,2013-02-10 08:54:00,
2013-02-10 03:55:00,78.1,74.9,0.00,WNW,292,3.8,744.7,90,0.05,,---,99.99,VWS V14.00,2013-02-10 08:55:00,
2013-02-10 03:56:00,19.6,-13.1,0.00,SE,135,5.8,744.7,22,0.05,,---,99.99,VWS V14.00,2013-02-10 08:56:00,
2013-02-10 03:58:00,19.4,-12.3,0.00,NNW,338,2.5,690.3,23,99.99,,---,0.30,VWS V14.00,2013-02-10 08:58:00,
2013-02-10 03:59:00,19.4,-12.3,0.00,NNW,338,2.7,690.3,23,99.99,,---,0.30,VWS V14.00,2013-02-10 08:59:00,
2013-02-10 04:01:00,33.1,0.2,0.00,SE,135,2.7,802.0,24,0.05,,---,76.77,VWS V14.00,2013-02-10 09:01:00,
2013-02-10 04:04:00,32.0,0.0,0.00,NNW,338,5.6,690.3,100,99.99,,---,0.00,VWS V14.00,2013-02-10 09:04:00,
2013-02-10 04:06:00,33.1,0.2,0.00,NW,315,4.9,802.0,24,99.99,,---,99.99,VWS V14.00,2013-02-10 09:06:00,
2013-02-10 04:07:00,32.0,0.0,0.00,WNW,292,2.5,690.3,0,99.99,,---,99.99,VWS V14.00,2013-02-10 09:07:00,
2013-02-10 04:12:00,19.4,-12.3,30.39,NW,315,5.6,5.6,23,0.00,,---,0.00,VWS V14.00,2013-02-10 09:12:00,
2013-02-10 04:13:00,19.4,-12.3,30.39,NW,315,6.0,6.0,23,0.00,,---,0.00,VWS V14.00,2013-02-10 09:13:00,
2013-02-10 04:15:00,19.4,-12.3,30.39,NW,315,4.0,6.3,23,0.00,,---,0.00,VWS V14.00,2013-02-10 09:15:00,
2013-02-10 04:18:00,19.4,-12.3,30.39,NW,315,4.9,6.3,23,0.00,,---,0.00,VWS V14.00,2013-02-10 09:18:00,
2013-02-10 04:19:00,19.4,-12.3,30.39,NW,315,6.5,6.5,23,0.00,,---,0.00,VWS V14.00,2013-02-10 09:19:00,
2013-02-10 04:22:00,19.4,-12.3,30.39,WNW,292,2.9,5.4,23,0.00,,---,0.00,VWS V14.00,2013-02-10 09:22:00,
2013-02-10 04:24:00,19.4,-12.3,30.39,WNW,292,3.1,3.4,23,0.00,,---,0.00,VWS V14.00,2013-02-10 09:24:00,
2013-02-10 04:27:00,19.4,-12.3,30.39,WSW,248,2.5,5.6,23,0.00,,---,0.00,VWS V14.00,2013-02-10 09:27:00,
2013-02-10 04:29:00,19.4,-12.3,30.39,WNW,292,2.9,5.6,23,0.00,,---,0.00,VWS V14.00,2013-02-10 09:29:00,
2013-02-10 04:30:00,19.4,-12.3,30.39,WNW,292,5.4,5.4,23,0.00,,---,0.00,VWS V14.00,2013-02-10 09:30:00,
2013-02-10 04:31:00,19.4,-12.3,30.39,NW,315,5.8,5.8,23,0.00,,---,0.00,VWS V14.00,2013-02-10 09:31:00,
2013-02-10 04:35:00,19.4,-12.3,30.39,WNW,292,4.9,4.9,23,0.00,,---,0.00,VWS V14.00,2013-02-10 09:35:00,
2013-02-10 04:38:00,19.2,-12.5,30.39,NW,315,2.2,5.6,23,0.00,,---,0.00,VWS V14.00,2013-02-10 09:38:00,
2013-02-10 04:39:00,19.2,-12.5,30.39,WNW,292,4.3,8.1,23,0.00,,---,0.00,VWS V14.00,2013-02-10 09:39:00,
2013-02-10 04:43:00,19.2,-12.5,30.39,WNW,292,3.6,3.6,23,0.00,,---,0.00,VWS V14.00,2013-02-10 09:43:00,
2013-02-10 04:44:00,19.2,-12.5,30.39,WNW,292,4.3,4.3,23,0.00,,---,0.00,VWS V14.00,2013-02-10 09:44:00,
2013-02-10 04:45:00,19.2,-12.5,30.39,NW,315,4.0,5.8,23,0.00,,---,0.00,VWS V14.00,2013-02-10 09:45:00,
2013-02-10 04:50:00,19.2,-12.5,30.39,NNW,338,3.4,6.0,23,0.00,,---,0.00,VWS V14.00,2013-02-10 09:50:00,
2013-02-10 04:51:00,19.2,-12.5,30.39,NW,315,2.9,6.0,23,0.00,,---,0.00,VWS V14.00,2013-02-10 09:51:00,
2013-02-10 04:52:00,19.4,-12.3,30.39,NNW,338,3.1,4.7,23,0.00,,---,0.00,VWS V14.00,2013-02-10 09:52:00,
2013-02-10 04:55:00,19.2,-12.5,30.39,WNW,292,4.0,4.3,23,0.00,,---,0.00,VWS V14.00,2013-02-10 09:55:00,
2013-02-10 04:56:00,19.2,-12.5,30.39,NNW,338,2.7,4.0,23,0.00,,---,0.00,VWS V14.00,2013-02-10 09:56:00,
2013-02-10 04:57:00,19.2,-12.5,30.39,NNW,338,2.7,2.7,23,0.00,,---,0.00,VWS V14.00,2013-02-10 09:57:00,
2013-02-10 04:58:00,19.2,-12.5,30.39,WNW,292,2.9,2.9,23,0.00,,---,0.00,VWS V14.00,2013-02-10 09:58:00,
2013-02-10 05:03:00,19.2,-12.5,30.39,West,270,4.7,4.7,23,0.00,,---,0.00,VWS V14.00,2013-02-10 10:03:00,
2013-02-10 05:04:00,19.2,-12.5,30.39,WNW,292,2.5,4.7,23,0.00,,---,0.00,VWS V14.00,2013-02-10 10:04:00,
2013-02-10 05:05:00,19.2,-12.5,30.39,NNW,338,6.3,6.3,23,0.00,,---,0.00,VWS V14.00,2013-02-10 10:05:00,
2013-02-10 05:06:00,19.4,-12.3,30.39,NW,315,5.4,6.3,23,0.00,,---,0.00,VWS V14.00,2013-02-10 10:06:00,
2013-02-10 05:08:00,19.4,-12.3,30.39,WNW,292,6.5,6.5,23,0.00,,---,0.00,VWS V14.00,2013-02-10 10:08:00,
2013-02-10 05:10:00,19.2,-12.5,30.39,West,270,6.3,6.3,23,0.00,,---,0.00,VWS V14.00,2013-02-10 10:10:00,
2013-02-10 05:13:00,19.4,-12.3,30.39,WNW,292,0.9,5.8,23,0.00,,---,0.00,VWS V14.00,2013-02-10 10:13:00,
2013-02-10 05:15:00,19.2,-12.5,30.39,WNW,292,4.9,4.9,23,0.00,,---,0.00,VWS V14.00,2013-02-10 10:15:00,
2013-02-10 05:16:00,19.2,-12.5,30.39,NW,315,2.5,4.9,23,0.00,,---,0.00,VWS V14.00,2013-02-10 10:16:00,
2013-02-10 05:18:00,19.2,-12.5,30.39,WNW,292,3.4,3.8,23,0.00,,---,0.00,VWS V14.00,2013-02-10 10:18:00,
2013-02-10 05:22:00,19.4,-12.3,30.39,NW,315,3.6,3.8,23,0.00,,---,0.00,VWS V14.00,2013-02-10 10:22:00,
2013-02-10 05:23:00,19.2,-12.5,30.39,WNW,292,1.1,4.9,23,0.00,,---,0.00,VWS V14.00,2013-02-10 10:23:00,
2013-02-10 05:24:00,19.2,-12.5,30.39,NW,315,3.4,5.6,23,0.00,,---,0.00,VWS V14.00,2013-02-10 10:24:00,
2013-02-10 05:26:00,19.2,-12.5,30.39,NNW,338,3.1,3.1,23,0.00,,---,0.00,VWS V14.00,2013-02-10 10:26:00,
2013-02-10 05:28:00,19.2,-12.5,30.39,WNW,292,6.0,6.0,23,0.00,,---,0.00,VWS V14.00,2013-02-10 10:28:00,
2013-02-10 05:30:00,19.0,-12.6,30.39,NNW,338,3.1,4.9,23,0.00,,---,0.00,VWS V14.00,2013-02-10 10:30:00,
2013-02-10 05:32:00,19.0,-12.6,30.39,NNW,338,0.9,0.9,23,0.00,,---,0.00,VWS V14.00,2013-02-10 10:32:00,
2013-02-10 05:33:00,18.9,-12.8,30.39,WNW,292,3.1,4.3,23,0.00,,---,0.00,VWS V14.00,2013-02-10 10:33:00,
2013-02-10 05:36:00,18.7,-13.0,30.39,North,0,1.1,3.1,23,0.00,,---,0.00,VWS V14.00,2013-02-10 10:36:00,
2013-02-10 05:37:00,18.7,-13.0,30.39,North,0,0.0,1.1,23,0.00,,---,0.00,VWS V14.00,2013-02-10 10:37:00,
2013-02-10 05:38:00,18.5,-13.1,30.39,NNW,338,3.1,3.1,23,0.00,,---,0.00,VWS V14.00,2013-02-10 10:38:00,
2013-02-10 05:41:00,18.5,-13.1,30.39,NW,315,3.8,3.8,23,0.00,,---,0.00,VWS V14.00,2013-02-10 10:41:00,
2013-02-10 05:44:00,18.7,-13.0,30.39,NW,315,3.8,3.8,23,0.00,,---,0.00,VWS V14.00,2013-02-10 10:44:00,
2013-02-10 05:45:00,18.7,-13.0,30.39,NNW,338,3.4,3.8,23,0.00,,---,0.00,VWS V14.00,2013-02-10 10:45:00,
2013-02-10 05:48:00,18.5,-13.1,30.39,NNW,338,0.0,0.0,23,0.00,,---,0.00,VWS V14.00,2013-02-10 10:48:00,
2013-02-10 05:49:00,18.5,-13.1,30.39,NW,315,6.3,6.3,23,0.00,,---,0.00,VWS V14.00,2013-02-10 10:49:00,
2013-02-10 05:53:00,18.5,-13.1,30.36,North,0,2.9,6.0,23,0.00,,---,0.00,VWS V14.00,2013-02-10 10:53:00,
2013-02-10 05:55:00,18.5,-13.1,30.36,NNW,338,1.3,4.3,23,0.00,,---,0.00,VWS V14.00,2013-02-10 10:55:00,
2013-02-10 05:56:00,18.5,-13.1,30.36,NNW,338,3.6,3.6,23,0.00,,---,0.00,VWS V14.00,2013-02-10 10:56:00,
2013-02-10 05:58:00,18.5,-13.1,30.36,NNW,338,4.3,4.3,23,0.00,,---,0.00,VWS V14.00,2013-02-10 10:58:00,
2013-02-10 05:59:00,18.5,-13.1,30.36,NNW,338,2.5,4.3,23,0.00,,---,0.00,VWS V14.00,2013-02-10 10:59:00,
2013-02-10 06:01:00,32.4,0.0,0.00,SE,135,4.7,690.1,0,99.99,,---,0.00,VWS V14.00,2013-02-10 11:01:00,
2013-02-10 06:02:00,18.3,-13.3,0.00,NNW,338,2.7,690.1,23,99.99,,---,0.00,VWS V14.00,2013-02-10 11:02:00,
2013-02-10 06:03:00,18.3,-13.3,0.00,SE,135,2.7,744.7,23,99.99,,---,99.99,VWS V14.00,2013-02-10 11:03:00,
2013-02-10 06:04:00,18.3,-13.3,0.00,SE,135,4.9,744.7,23,99.99,,---,99.99,VWS V14.00,2013-02-10 11:04:00,
2013-02-10 06:06:00,18.3,-13.3,0.00,NNW,338,1.3,690.1,23,99.99,,---,99.99,VWS V14.00,2013-02-10 11:06:00,
2013-02-10 06:07:00,18.3,-13.3,0.00,NNW,338,1.3,690.1,23,99.99,,---,99.99,VWS V14.00,2013-02-10 11:07:00,
2013-02-10 06:08:00,18.3,-13.3,0.00,SE,135,1.3,690.1,23,99.99,,---,0.00,VWS V14.00,2013-02-10 11:08:00,
2013-02-10 06:09:00,33.1,0.2,0.00,North,0,2.2,690.1,24,99.99,,---,0.00,VWS V14.00,2013-02-10 11:09:00,
2013-02-10 06:11:00,33.1,0.2,0.00,NNW,338,3.6,690.1,24,99.99,,---,0.00,VWS V14.00,2013-02-10 11:11:00,
2013-02-10 06:13:00,78.1,78.1,0.00,North,0,2.5,690.3,100,99.99,,---,0.00,VWS V14.00,2013-02-10 11:13:00,
2013-02-10 06:14:00,78.1,78.1,0.00,North,0,2.5,690.3,100,99.99,,---,0.00,VWS V14.00,2013-02-10 11:14:00,
2013-02-10 06:15:00,78.1,78.1,0.00,North,0,2.9,690.3,100,99.99,,---,0.00,VWS V14.00,2013-02-10 11:15:00,
2013-02-10 06:16:00,78.1,78.1,0.00,NNW,338,2.0,690.3,100,0.05,,---,99.99,VWS V14.00,2013-02-10 11:16:00,
2013-02-10 06:19:00,18.1,-13.4,0.00,SE,135,2.7,744.7,23,0.05,,---,99.99,VWS V14.00,2013-02-10 11:19:00,
2013-02-10 06:20:00,18.1,-13.4,0.00,NW,315,2.5,690.3,23,99.99,,---,0.00,VWS V14.00,2013-02-10 11:20:00,
2013-02-10 06:22:00,18.1,-13.4,0.00,North,360,0.0,690.3,23,99.99,,---,0.00,VWS V14.00,2013-02-10 11:22:00,
2013-02-10 06:24:00,78.1,74.9,0.00,SE,135,1.6,744.7,90,0.05,,---,99.99,VWS V14.00,2013-02-10 11:24:00,
2013-02-10 06:25:00,78.1,74.9,0.00,NW,315,2.7,690.3,90,99.99,,---,0.30,VWS V14.00,2013-02-10 11:25:00,
2013-02-10 06:27:00,17.8,-13.7,0.00,NW,315,1.1,690.3,23,99.99,,---,0.30,VWS V14.00,2013-02-10 11:27:00,
2013-02-10 06:29:00,33.1,0.0,0.00,NW,315,0.0,690.3,100,99.99,,---,0.00,VWS V14.00,2013-02-10 11:29:00,
2013-02-10 06:30:00,17.8,0.0,0.00,North,0,2.9,690.3,100,99.99,,---,99.99,VWS V14.00,2013-02-10 11:30:00,
2013-02-10 06:31:00,17.8,-13.7,0.00,SE,135,3.1,802.0,23,99.99,,---,99.99,VWS V14.00,2013-02-10 11:31:00,
2013-02-10 06:33:00,33.1,0.2,0.00,North,360,2.0,690.3,24,99.99,,---,0.10,VWS V14.00,2013-02-10 11:33:00,
2013-02-10 06:36:00,17.8,-13.7,30.39,NNW,338,1.1,2.7,23,0.00,,---,0.00,VWS V14.00,2013-02-10 11:36:00,
2013-02-10 06:38:00,17.6,-13.9,30.39,NNW,338,0.0,0.0,23,0.00,,---,0.00,VWS V14.00,2013-02-10 11:38:00,
2013-02-10 06:43:00,17.6,-13.9,30.39,NNW,338,0.0,0.0,23,0.00,,---,0.00,VWS V14.00,2013-02-10 11:43:00,
2013-02-10 06:44:00,17.6,-13.9,30.39,NNW,338,0.0,0.0,23,0.00,,---,0.00,VWS V14.00,2013-02-10 11:44:00,
2013-02-10 06:48:00,17.6,-13.9,30.39,NNW,338,0.9,2.5,23,0.00,,---,0.00,VWS V14.00,2013-02-10 11:48:00,
2013-02-10 06:49:00,17.8,-13.7,30.39,WNW,292,2.9,4.3,23,0.00,,---,0.00,VWS V14.00,2013-02-10 11:49:00,
2013-02-10 06:50:00,17.8,-13.7,30.39,NW,315,2.7,3.4,23,0.00,,---,0.00,VWS V14.00,2013-02-10 11:50:00,
2013-02-10 06:54:00,17.8,-13.7,30.41,NW,315,0.0,0.0,23,0.00,,---,0.00,VWS V14.00,2013-02-10 11:54:00,
2013-02-10 06:56:00,17.8,-13.7,30.41,NW,315,0.0,0.0,23,0.00,,---,0.00,VWS V14.00,2013-02-10 11:56:00,
2013-02-10 06:57:00,17.8,-13.7,30.41,WNW,292,3.8,3.8,23,0.00,,---,0.00,VWS V14.00,2013-02-10 11:57:00,
2013-02-10 07:01:00,17.8,-13.7,30.41,NNW,338,0.0,2.5,23,0.00,,---,0.00,VWS V14.00,2013-02-10 12:01:00,
2013-02-10 07:02:00,18.0,-13.6,30.41,NW,315,0.0,0.0,23,0.00,,---,0.00,VWS V14.00,2013-02-10 12:02:00,
2013-02-10 07:04:00,18.1,-13.4,30.41,NW,315,2.9,3.4,23,0.00,,---,0.00,VWS V14.00,2013-02-10 12:04:00,
2013-02-10 07:06:00,18.7,-13.0,30.41,WNW,292,2.0,4.3,23,0.00,,---,0.00,VWS V14.00,2013-02-10 12:06:00,
2013-02-10 07:08:00,19.0,-12.6,30.41,NNW,338,0.0,2.2,23,0.00,,---,0.00,VWS V14.00,2013-02-10 12:08:00,
2013-02-10 07:09:00,19.4,-12.3,30.41,WNW,292,0.0,0.0,23,0.00,,---,0.00,VWS V14.00,2013-02-10 12:09:00,
2013-02-10 07:10:00,19.8,-12.9,30.41,NW,315,0.0,0.0,22,0.00,,---,0.00,VWS V14.00,2013-02-10 12:10:00,
2013-02-10 07:14:00,21.2,-11.7,30.41,North,0,3.1,4.7,22,0.00,,---,0.00,VWS V14.00,2013-02-10 12:14:00,
2013-02-10 07:17:00,22.3,-10.8,30.41,NW,315,0.0,2.0,22,0.00,,---,0.00,VWS V14.00,2013-02-10 12:17:00,
2013-02-10 07:21:00,22.1,-10.9,30.41,West,270,2.9,2.9,22,0.00,,---,0.00,VWS V14.00,2013-02-10 12:21:00,
2013-02-10 07:22:00,22.3,-10.8,30.44,West,270,3.6,3.6,22,0.00,,---,0.00,VWS V14.00,2013-02-10 12:22:00,
2013-02-10 07:26:00,23.0,-10.2,30.44,West,270,2.5,2.7,22,0.00,,---,0.00,VWS V14.00,2013-02-10 12:26:00,
2013-02-10 07:27:00,23.5,-9.7,30.44,West,270,1.6,2.5,22,0.00,,---,0.00,VWS V14.00,2013-02-10 12:27:00,
2013-02-10 07:28:00,23.5,-9.7,30.44,WNW,292,2.9,2.9,22,0.00,,---,0.00,VWS V14.00,2013-02-10 12:28:00,
2013-02-10 07:33:00,23.2,-10.0,30.44,WNW,292,3.6,5.6,22,0.00,,---,0.00,VWS V14.00,2013-02-10 12:33:00,
2013-02-10 07:34:00,24.1,-9.2,30.44,WNW,292,0.0,3.6,22,0.00,,---,0.00,VWS V14.00,2013-02-10 12:34:00,
2013-02-10 07:35:00,24.3,-9.1,30.44,WNW,292,1.6,3.4,22,0.00,,---,0.00,VWS V14.00,2013-02-10 12:35:00,
2013-02-10 07:40:00,24.6,-8.8,30.44,WNW,292,3.6,4.3,22,0.00,,---,0.00,VWS V14.00,2013-02-10 12:40:00,
2013-02-10 07:41:00,25.2,-9.3,30.44,WNW,292,0.0,3.6,21,0.00,,---,0.00,VWS V14.00,2013-02-10 12:41:00,
2013-02-10 07:43:00,25.5,-9.0,30.44,WNW,292,4.7,4.7,21,0.00,,---,0.00,VWS V14.00,2013-02-10 12:43:00,
2013-02-10 07:46:00,25.7,-8.8,30.44,WNW,292,2.0,4.0,21,0.00,,---,0.00,VWS V14.00,2013-02-10 12:46:00,
2013-02-10 07:48:00,26.4,-8.2,30.44,West,270,2.9,3.8,21,0.00,,---,0.00,VWS V14.00,2013-02-10 12:48:00,
2013-02-10 07:49:00,25.7,-8.8,30.44,WNW,292,4.9,4.9,21,0.00,,---,0.00,VWS V14.00,2013-02-10 12:49:00,
2013-02-10 07:51:00,26.2,-8.4,30.44,NW,315,3.1,4.3,21,0.00,,---,0.00,VWS V14.00,2013-02-10 12:51:00,
2013-02-10 07:53:00,26.1,-8.5,30.44,WNW,292,4.0,4.0,21,0.00,,---,0.00,VWS V14.00,2013-02-10 12:53:00,
2013-02-10 07:56:00,26.2,-8.4,30.44,NW,315,2.7,4.0,21,0.00,,---,0.00,VWS V14.00,2013-02-10 12:56:00,
2013-02-10 07:59:00,26.4,-8.2,30.44,West,270,4.0,4.0,21,0.00,,---,0.00,VWS V14.00,2013-02-10 12:59:00,
2013-02-10 08:00:00,27.1,-7.6,30.44,WNW,292,2.2,4.0,21,0.00,,---,0.00,VWS V14.00,2013-02-10 13:00:00,
2013-02-10 08:02:00,27.0,-7.8,30.44,WNW,292,2.2,5.4,21,0.00,,---,0.00,VWS V14.00,2013-02-10 13:02:00,
2013-02-10 08:03:00,26.6,-8.1,30.44,WNW,292,2.9,3.8,21,0.00,,---,0.00,VWS V14.00,2013-02-10 13:03:00,
2013-02-10 08:06:00,27.1,-7.6,30.41,WNW,292,4.0,4.3,21,0.00,,---,0.00,VWS V14.00,2013-02-10 13:06:00,
2013-02-10 08:09:00,26.8,-7.9,30.41,WNW,292,3.1,6.3,21,0.00,,---,0.00,VWS V14.00,2013-02-10 13:09:00,
2013-02-10 08:10:00,26.4,-8.2,30.41,WNW,292,2.7,4.0,21,0.00,,---,0.00,VWS V14.00,2013-02-10 13:10:00,
2013-02-10 08:12:00,26.4,-8.2,30.41,WNW,292,2.9,5.8,21,0.00,,---,0.00,VWS V14.00,2013-02-10 13:12:00,
2013-02-10 08:16:00,27.0,-7.8,30.41,West,270,4.0,6.5,21,0.00,,---,0.00,VWS V14.00,2013-02-10 13:16:00,
2013-02-10 08:17:00,27.5,-7.3,30.41,WNW,292,2.0,4.3,21,0.00,,---,0.00,VWS V14.00,2013-02-10 13:17:00,
2013-02-10 08:18:00,27.3,-7.4,30.41,WNW,292,3.8,5.6,21,0.00,,---,0.00,VWS V14.00,2013-02-10 13:18:00,
2013-02-10 08:19:00,27.5,-7.3,30.41,WNW,292,3.6,4.3,21,0.00,,---,0.00,VWS V14.00,2013-02-10 13:19:00,
2013-02-10 08:24:00,27.1,-7.6,30.44,WNW,292,4.0,6.0,21,0.00,,---,0.00,VWS V14.00,2013-02-10 13:24:00,
2013-02-10 08:25:00,27.5,-7.3,30.44,NNW,338,1.3,4.3,21,0.00,,---,0.00,VWS V14.00,2013-02-10 13:25:00,
2013-02-10 08:27:00,27.9,-5.1,30.44,WNW,292,0.0,5.8,23,0.00,,---,0.00,VWS V14.00,2013-02-10 13:27:00,
2013-02-10 08:30:00,28.0,-5.0,30.44,WNW,292,3.6,4.3,23,0.00,,---,0.00,VWS V14.00,2013-02-10 13:30:00,
2013-02-10 08:33:00,28.6,-4.5,30.44,NW,315,0.0,2.5,23,0.00,,---,0.00,VWS V14.00,2013-02-10 13:33:00,
2013-02-10 08:34:00,29.1,-4.1,30.44,NW,315,0.0,2.7,23,0.00,,---,0.00,VWS V14.00,2013-02-10 13:34:00,
2013-02-10 08:38:00,29.1,-4.1,30.44,NW,315,1.6,4.7,23,0.00,,---,0.00,VWS V14.00,2013-02-10 13:38:00,
2013-02-10 08:40:00,29.5,-3.7,30.44,NNW,338,3.4,6.0,23,0.00,,---,0.00,VWS V14.00,2013-02-10 13:40:00,
2013-02-10 08:41:00,29.5,-3.7,30.44,NW,315,3.8,4.0,23,0.00,,---,0.00,VWS V14.00,2013-02-10 13:41:00,
2013-02-10 08:44:00,31.8,-1.8,30.44,NNW,338,2.9,2.9,23,0.00,,---,0.00,VWS V14.00,2013-02-10 13:44:00,
2013-02-10 08:46:00,32.7,-1.0,30.44,NW,315,3.4,3.4,23,0.00,,---,0.00,VWS V14.00,2013-02-10 13:46:00,
2013-02-10 08:47:00,32.9,-0.8,30.44,WNW,292,3.1,3.4,23,0.00,,---,0.00,VWS V14.00,2013-02-10 13:47:00,
2013-02-10 08:51:00,33.8,-1.0,30.44,NNW,338,2.2,2.2,22,0.00,,---,0.00,VWS V14.00,2013-02-10 13:51:00,
2013-02-10 08:52:00,34.0,-0.9,30.44,NNW,338,3.4,3.4,22,0.00,,---,0.00,VWS V14.00,2013-02-10 13:52:00,
2013-02-10 08:55:00,33.3,-0.5,30.44,WNW,292,3.4,4.3,23,0.00,,---,0.00,VWS V14.00,2013-02-10 13:55:00,
2013-02-10 08:56:00,33.1,-0.7,30.44,WNW,292,2.2,4.3,23,0.00,,---,0.00,VWS V14.00,2013-02-10 13:56:00,
2013-02-10 08:58:00,32.9,-0.8,30.44,NW,315,2.5,4.7,23,0.00,,---,0.00,VWS V14.00,2013-02-10 13:58:00,
2013-02-10 09:00:00,32.7,-1.0,30.44,WNW,292,0.0,3.6,23,0.00,,---,0.00,VWS V14.00,2013-02-10 14:00:00,
2013-02-10 09:03:00,33.4,-0.4,30.44,NNW,338,3.8,3.8,23,0.00,,---,0.00,VWS V14.00,2013-02-10 14:03:00,
2013-02-10 09:04:00,33.6,-0.2,30.44,North,0,4.0,4.0,23,0.00,,---,0.00,VWS V14.00,2013-02-10 14:04:00,
2013-02-10 09:05:00,32.7,-1.0,30.44,North,0,5.6,7.8,23,0.00,,---,0.00,VWS V14.00,2013-02-10 14:05:00,
2013-02-10 09:08:00,33.8,-1.0,30.44,NNW,338,2.9,2.9,22,0.00,,---,0.00,VWS V14.00,2013-02-10 14:08:00,
2013-02-10 09:09:00,33.4,-0.4,30.44,NNW,338,3.6,4.7,23,0.00,,---,0.00,VWS V14.00,2013-02-10 14:09:00,
2013-02-10 09:10:00,33.4,-0.4,30.44,WNW,292,2.5,3.6,23,0.00,,---,0.00,VWS V14.00,2013-02-10 14:10:00,
2013-02-10 09:14:00,33.4,-0.4,30.44,WNW,292,3.1,5.6,23,0.00,,---,0.00,VWS V14.00,2013-02-10 14:14:00,
2013-02-10 09:15:00,33.3,-0.5,30.44,NW,315,3.4,3.8,23,0.00,,---,0.00,VWS V14.00,2013-02-10 14:15:00,
2013-02-10 09:16:00,33.8,-1.0,30.44,NW,315,2.9,3.4,22,0.00,,---,0.00,VWS V14.00,2013-02-10 14:16:00,
2013-02-10 09:17:00,34.0,-0.9,30.44,WNW,292,3.4,4.3,22,0.00,,---,0.00,VWS V14.00,2013-02-10 14:17:00,
2013-02-10 09:22:00,34.5,-0.4,30.47,NNW,338,2.5,3.6,22,0.00,,---,0.00,VWS V14.00,2013-02-10 14:22:00,
2013-02-10 09:24:00,34.5,-0.4,30.47,North,0,2.7,3.6,22,0.00,,---,0.00,VWS V14.00,2013-02-10 14:24:00,
2013-02-10 09:27:00,34.3,-0.6,30.47,WNW,292,4.3,4.3,22,0.00,,---,0.00,VWS V14.00,2013-02-10 14:27:00,
2013-02-10 09:29:00,34.0,-0.9,30.47,WNW,292,3.1,4.3,22,0.00,,---,0.00,VWS V14.00,2013-02-10 14:29:00,
2013-02-10 09:32:00,33.6,-0.2,30.47,NW,315,2.5,4.3,23,0.00,,---,0.00,VWS V14.00,2013-02-10 14:32:00,
2013-02-10 09:37:00,33.4,-0.4,30.47,NW,315,2.9,5.4,23,0.00,,---,0.00,VWS V14.00,2013-02-10 14:37:00,
2013-02-10 09:41:00,33.3,-0.5,30.47,NW,315,2.9,3.4,23,0.00,,---,0.00,VWS V14.00,2013-02-10 14:41:00,
2013-02-10 09:42:00,33.3,-0.5,30.47,WNW,292,5.8,5.8,23,0.00,,---,0.00,VWS V14.00,2013-02-10 14:42:00,
2013-02-10 09:43:00,33.6,-0.2,30.47,NW,315,2.2,5.8,23,0.00,,---,0.00,VWS V14.00,2013-02-10 14:43:00,
2013-02-10 09:49:00,33.8,-1.0,30.47,NNW,338,0.0,4.7,22,0.00,,---,0.00,VWS V14.00,2013-02-10 14:49:00,
2013-02-10 09:54:00,34.2,-0.7,30.47,WNW,292,3.4,3.6,22,0.00,,---,0.00,VWS V14.00,2013-02-10 14:54:00,
2013-02-10 09:58:00,33.6,-0.2,30.47,WNW,292,2.9,4.0,23,0.00,,---,0.00,VWS V14.00,2013-02-10 14:58:00,
2013-02-10 09:59:00,33.8,-1.0,30.47,WNW,292,2.5,2.9,22,0.00,,---,0.00,VWS V14.00,2013-02-10 14:59:00,
2013-02-10 10:00:00,34.0,-0.9,30.47,NNW,338,2.5,4.0,22,0.00,,---,0.00,VWS V14.00,2013-02-10 15:00:00,
2013-02-10 10:03:00,34.0,-0.9,30.47,West,270,2.5,2.5,22,0.00,,---,0.00,VWS V14.00,2013-02-10 15:03:00,
2013-02-10 10:07:00,34.2,-0.7,30.47,WNW,292,3.6,4.9,22,0.00,,---,0.00,VWS V14.00,2013-02-10 15:07:00,
2013-02-10 10:08:00,34.2,-0.7,30.47,NW,315,2.7,4.7,22,0.00,,---,0.00,VWS V14.00,2013-02-10 15:08:00,
2013-02-10 10:13:00,34.0,-0.9,30.47,WNW,292,4.0,4.3,22,0.00,,---,0.00,VWS V14.00,2013-02-10 15:13:00,
2013-02-10 10:17:00,35.1,0.1,30.47,West,270,2.5,2.9,22,0.00,,---,0.00,VWS V14.00,2013-02-10 15:17:00,
2013-02-10 10:18:00,35.4,0.4,30.47,WNW,292,3.6,3.6,22,0.00,,---,0.00,VWS V14.00,2013-02-10 15:18:00,
2013-02-10 10:19:00,35.4,0.4,30.47,NNW,338,4.3,4.3,22,0.00,,---,0.00,VWS V14.00,2013-02-10 15:19:00,
2013-02-10 10:24:00,35.8,0.7,30.47,NW,315,3.4,5.6,22,0.00,,---,0.00,VWS V14.00,2013-02-10 15:24:00,
2013-02-10 10:29:00,36.5,1.3,30.47,NW,315,3.1,3.4,22,0.00,,---,0.00,VWS V14.00,2013-02-10 15:29:00,
2013-02-10 10:31:00,36.9,1.6,30.47,NW,315,3.4,3.6,22,0.00,,---,0.00,VWS V14.00,2013-02-10 15:31:00,
2013-02-10 10:34:00,36.7,1.4,30.47,NW,315,2.2,2.9,22,0.00,,---,0.00,VWS V14.00,2013-02-10 15:34:00,
2013-02-10 10:37:00,36.5,1.3,30.50,WNW,292,5.6,5.6,22,0.00,,---,0.00,VWS V14.00,2013-02-10 15:37:00,
2013-02-10 10:39:00,36.3,1.1,30.50,NNW,338,2.9,3.6,22,0.00,,---,0.00,VWS V14.00,2013-02-10 15:39:00,
2013-02-10 10:41:00,36.7,1.4,30.50,NW,315,2.7,3.4,22,0.00,,---,0.00,VWS V14.00,2013-02-10 15:41:00,
2013-02-10 10:44:00,37.0,1.7,30.50,WNW,292,3.1,4.0,22,0.00,,---,0.00,VWS V14.00,2013-02-10 15:44:00,
2013-02-10 10:45:00,37.4,1.0,30.50,NW,315,3.6,3.6,21,0.00,,---,0.00,VWS V14.00,2013-02-10 15:45:00,
2013-02-10 10:50:00,37.8,1.4,30.50,WNW,292,2.5,2.9,21,0.00,,---,0.00,VWS V14.00,2013-02-10 15:50:00,
2013-02-10 10:55:00,38.1,1.6,30.47,NNW,338,0.0,0.0,21,0.00,,---,0.00,VWS V14.00,2013-02-10 15:55:00,
2013-02-10 11:00:00,37.9,1.5,30.47,West,270,2.0,2.7,21,0.00,,---,0.00,VWS V14.00,2013-02-10 16:00:00,
2013-02-10 11:02:00,37.9,1.5,30.47,WNW,292,0.0,3.8,21,0.00,,---,0.00,VWS V14.00,2013-02-10 16:02:00,
2013-02-10 11:04:00,38.7,2.1,30.47,NNW,338,2.0,2.2,21,0.00,,---,0.00,VWS V14.00,2013-02-10 16:04:00,
2013-02-10 11:05:00,32.0,0.0,20.20,WNW,292,3.6,158.2,0,12.96,,---,33.30,VWS V14.00,2013-02-10 16:05:00,
2013-02-10 11:07:00,38.8,2.3,30.47,WNW,292,2.5,2.5,21,12.96,,---,33.30,VWS V14.00,2013-02-10 16:07:00,
2013-02-10 11:08:00,37.9,1.5,30.47,WNW,292,2.9,2.9,21,0.00,,---,0.00,VWS V14.00,2013-02-10 16:08:00,
2013-02-10 11:11:00,38.3,1.8,30.47,WNW,292,0.0,1.6,21,0.00,,---,0.00,VWS V14.00,2013-02-10 16:11:00,
2013-02-10 11:15:00,38.5,2.0,30.47,WNW,292,3.1,3.6,21,0.00,,---,0.00,VWS V14.00,2013-02-10 16:15:00,
2013-02-10 11:20:00,37.2,1.9,30.47,WSW,248,3.1,4.3,22,0.00,,---,0.00,VWS V14.00,2013-02-10 16:20:00,
2013-02-10 11:21:00,37.4,1.0,30.50,WSW,248,1.6,3.1,21,0.00,,---,0.00,VWS V14.00,2013-02-10 16:21:00,
2013-02-10 11:26:00,37.4,1.0,30.50,NW,315,0.9,4.0,21,0.00,,---,0.00,VWS V14.00,2013-02-10 16:26:00,
2013-02-10 11:31:00,38.8,2.3,30.50,NE,45,0.0,0.0,21,0.00,,---,0.00,VWS V14.00,2013-02-10 16:31:00,
2013-02-10 11:36:00,39.9,3.2,30.44,West,270,0.0,0.0,21,0.00,,---,0.00,VWS V14.00,2013-02-10 16:36:00,
2013-02-10 11:40:00,40.5,3.6,30.44,NW,315,0.0,0.0,21,0.00,,---,0.00,VWS V14.00,2013-02-10 16:40:00,
2013-02-10 11:41:00,40.6,3.8,30.44,NW,315,0.9,0.9,21,0.00,,---,0.00,VWS V14.00,2013-02-10 16:41:00,
2013-02-10 11:46:00,40.6,3.8,30.44,West,270,0.0,0.0,21,0.00,,---,0.00,VWS V14.00,2013-02-10 16:46:00,
2013-02-10 11:51:00,41.9,4.8,30.44,WSW,248,0.0,0.0,21,0.00,,---,0.00,VWS V14.00,2013-02-10 16:51:00,
2013-02-10 11:56:00,42.4,5.3,30.44,NW,315,0.0,0.0,21,0.00,,---,0.00,VWS V14.00,2013-02-10 16:56:00,
2013-02-10 12:01:00,42.4,5.3,30.44,NW,315,3.8,3.8,21,0.00,,---,0.00,VWS V14.00,2013-02-10 17:01:00,
2013-02-10 12:02:00,41.9,4.8,30.44,NNW,338,2.2,3.8,21,0.00,,---,0.00,VWS V14.00,2013-02-10 17:02:00,
2013-02-10 12:04:00,42.3,5.1,30.44,NE,45,2.5,2.5,21,0.00,,---,0.00,VWS V14.00,2013-02-10 17:04:00,
2013-02-10 12:07:00,42.3,5.1,30.47,NNE,22,3.8,4.0,21,0.00,,---,0.00,VWS V14.00,2013-02-10 17:07:00,
2013-02-10 12:11:00,41.2,4.2,30.47,NNE,22,3.1,3.1,21,0.00,,---,0.00,VWS V14.00,2013-02-10 17:11:00,
2013-02-10 12:12:00,41.0,4.1,30.47,NNE,22,2.5,3.1,21,0.00,,---,0.00,VWS V14.00,2013-02-10 17:12:00,
2013-02-10 12:17:00,40.6,3.8,30.47,NNE,22,2.0,3.4,21,0.00,,---,0.00,VWS V14.00,2013-02-10 17:17:00,
2013-02-10 12:18:00,40.6,3.8,30.47,NNW,338,1.6,2.5,21,0.00,,---,0.00,VWS V14.00,2013-02-10 17:18:00,
2013-02-10 12:21:00,41.0,4.1,30.44,NNW,338,1.6,3.1,21,0.00,,---,0.00,VWS V14.00,2013-02-10 17:21:00,
2013-02-10 12:23:00,41.2,4.2,30.44,NNW,338,3.1,3.1,21,0.00,,---,0.00,VWS V14.00,2013-02-10 17:23:00,
2013-02-10 12:25:00,41.4,4.4,30.44,NNW,338,3.1,3.1,21,0.00,,---,0.00,VWS V14.00,2013-02-10 17:25:00,
2013-02-10 12:26:00,41.2,4.2,0.00,SSW,202,3.1,690.1,21,99.99,,---,0.70,VWS V14.00,2013-02-10 17:26:00,
2013-02-10 12:28:00,41.2,4.2,0.00,SE,135,3.1,744.7,21,99.99,,---,99.99,VWS V14.00,2013-02-10 17:28:00,
2013-02-10 12:31:00,40.5,3.6,0.00,SE,135,3.1,744.7,21,99.99,,---,99.99,VWS V14.00,2013-02-10 17:31:00,
2013-02-10 12:32:00,39.7,3.0,0.00,SE,135,3.1,744.7,21,99.99,,---,99.99,VWS V14.00,2013-02-10 17:32:00,
2013-02-10 12:33:00,39.4,2.7,0.00,NNW,338,3.1,690.1,21,99.99,,---,0.70,VWS V14.00,2013-02-10 17:33:00,
2013-02-10 12:34:00,39.4,2.7,0.00,NNW,338,3.1,690.1,21,99.99,,---,0.70,VWS V14.00,2013-02-10 17:34:00,
2013-02-10 12:37:00,78.1,78.1,0.00,SE,135,3.1,690.1,100,0.05,,---,99.99,VWS V14.00,2013-02-10 17:37:00,
2013-02-10 12:39:00,78.1,78.1,0.00,SE,135,3.1,690.3,100,0.05,,---,99.99,VWS V14.00,2013-02-10 17:39:00,
2013-02-10 12:42:00,38.8,2.3,0.00,SE,135,3.1,690.3,21,0.05,,---,99.99,VWS V14.00,2013-02-10 17:42:00,
2013-02-10 12:43:00,39.4,2.7,0.00,North,360,3.1,690.3,21,99.99,,---,0.00,VWS V14.00,2013-02-10 17:43:00,
2013-02-10 12:44:00,39.6,2.9,0.00,SE,135,3.1,690.3,21,99.99,,---,0.00,VWS V14.00,2013-02-10 17:44:00,
2013-02-10 12:47:00,39.6,0.0,0.00,SE,135,3.1,690.3,100,99.99,,---,0.00,VWS V14.00,2013-02-10 17:47:00,
2013-02-10 12:49:00,78.1,74.9,0.00,SE,135,3.1,744.7,90,0.05,,---,99.99,VWS V14.00,2013-02-10 17:49:00,
2013-02-10 12:50:00,39.2,2.6,0.00,SE,135,3.1,690.3,21,99.99,,---,0.30,VWS V14.00,2013-02-10 17:50:00,
2013-02-10 12:54:00,33.1,2.8,0.00,SE,135,2.5,802.0,27,0.05,,---,76.77,VWS V14.00,2013-02-10 17:54:00,
2013-02-10 12:55:00,33.1,2.8,0.00,ESE,112,2.9,690.3,27,99.99,,---,0.30,VWS V14.00,2013-02-10 17:55:00,
2013-02-10 12:56:00,38.1,1.6,0.00,ENE,68,4.0,690.3,21,0.07,,---,76.78,VWS V14.00,2013-02-10 17:56:00,
2013-02-10 13:00:00,95.0,27.4,0.00,West,270,3.4,690.3,9,99.99,,---,0.00,VWS V14.00,2013-02-10 18:00:00,
2013-02-10 13:01:00,33.1,2.8,0.00,SSW,202,2.9,690.3,27,99.99,,---,0.10,VWS V14.00,2013-02-10 18:01:00,
2013-02-10 13:02:00,32.0,0.0,0.00,SE,135,5.4,802.0,0,99.99,,---,99.99,VWS V14.00,2013-02-10 18:02:00,
2013-02-10 13:06:00,37.9,1.5,30.41,ESE,112,4.0,4.9,21,99.99,,---,0.10,VWS V14.00,2013-02-10 18:06:00,
2013-02-10 13:08:00,38.3,1.8,30.41,East,90,3.4,4.3,21,99.99,,---,0.10,VWS V14.00,2013-02-10 18:08:00,
2013-02-10 13:12:00,38.7,2.1,30.41,ENE,68,3.4,5.6,21,99.99,,---,0.10,VWS V14.00,2013-02-10 18:12:00,
2013-02-10 13:13:00,38.3,1.8,30.41,SE,135,4.3,5.4,21,99.99,,---,0.10,VWS V14.00,2013-02-10 18:13:00,
2013-02-10 13:14:00,37.9,1.5,30.41,ESE,112,4.3,4.3,21,99.99,,---,0.10,VWS V14.00,2013-02-10 18:14:00,
2013-02-10 13:15:00,37.9,1.5,30.41,SE,135,3.4,5.6,21,99.99,,---,0.10,VWS V14.00,2013-02-10 18:15:00,
2013-02-10 13:20:00,38.1,1.6,30.41,ENE,68,5.4,5.4,21,99.99,,---,0.10,VWS V14.00,2013-02-10 18:20:00,
2013-02-10 13:24:00,37.4,1.0,30.41,ENE,68,3.4,5.6,21,99.99,,---,0.10,VWS V14.00,2013-02-10 18:24:00,
2013-02-10 13:26:00,37.4,1.0,30.41,SE,135,6.0,6.0,21,99.99,,---,0.10,VWS V14.00,2013-02-10 18:26:00,
2013-02-10 13:29:00,37.0,1.7,30.41,SE,135,5.4,5.4,22,99.99,,---,0.10,VWS V14.00,2013-02-10 18:29:00,
2013-02-10 13:33:00,37.0,1.7,30.41,ESE,112,4.0,5.4,22,99.99,,---,0.10,VWS V14.00,2013-02-10 18:33:00,
2013-02-10 13:35:00,37.2,1.9,30.41,SE,135,3.6,6.0,22,99.99,,---,0.10,VWS V14.00,2013-02-10 18:35:00,
2013-02-10 13:38:00,37.0,1.7,30.41,SE,135,3.1,5.6,22,99.99,,---,0.10,VWS V14.00,2013-02-10 18:38:00,
2013-02-10 13:40:00,37.2,1.9,30.41,SE,135,2.7,5.4,22,99.99,,---,0.10,VWS V14.00,2013-02-10 18:40:00,
2013-02-10 13:43:00,37.6,1.2,30.41,SE,135,1.1,1.1,21,99.99,,---,0.10,VWS V14.00,2013-02-10 18:43:00,
2013-02-10 13:44:00,37.6,1.2,30.41,SE,135,1.1,3.6,21,0.00,,---,0.00,VWS V14.00,2013-02-10 18:44:00,
2013-02-10 13:46:00,37.4,1.0,30.41,SE,135,5.8,6.3,21,0.00,,---,0.00,VWS V14.00,2013-02-10 18:46:00,
2013-02-10 13:48:00,37.2,1.9,30.41,ESE,112,5.6,5.6,22,0.00,,---,0.00,VWS V14.00,2013-02-10 18:48:00,
2013-02-10 13:51:00,37.2,1.9,30.41,SE,135,4.0,4.0,22,0.00,,---,0.00,VWS V14.00,2013-02-10 18:51:00,
2013-02-10 13:53:00,37.6,1.2,30.41,ESE,112,0.0,4.7,21,0.00,,---,0.00,VWS V14.00,2013-02-10 18:53:00,
2013-02-10 13:56:00,37.8,1.4,30.41,ESE,112,2.5,3.8,21,0.00,,---,0.00,VWS V14.00,2013-02-10 18:56:00,
2013-02-10 13:59:00,37.4,1.0,30.41,SE,135,3.1,3.1,21,0.00,,---,0.00,VWS V14.00,2013-02-10 18:59:00,
2013-02-10 14:01:00,37.6,1.2,30.41,SE,135,2.9,4.9,21,0.00,,---,0.00,VWS V14.00,2013-02-10 19:01:00,
2013-02-10 14:04:00,37.4,1.0,30.41,ESE,112,2.7,2.7,21,0.00,,---,0.00,VWS V14.00,2013-02-10 19:04:00,
2013-02-10 14:09:00,37.2,1.9,30.41,ENE,68,4.7,4.9,22,0.00,,---,0.00,VWS V14.00,2013-02-10 19:09:00,
2013-02-10 14:10:00,37.0,1.7,30.41,ENE,68,4.7,4.7,22,0.00,,---,0.00,VWS V14.00,2013-02-10 19:10:00,
2013-02-10 14:14:00,36.9,1.6,30.41,East,90,6.0,6.0,22,0.00,,---,0.00,VWS V14.00,2013-02-10 19:14:00,
2013-02-10 14:18:00,36.9,1.6,30.41,East,90,6.0,6.0,22,0.00,,---,0.00,VWS V14.00,2013-02-10 19:18:00,
2013-02-10 14:19:00,36.7,1.4,30.41,East,90,6.0,6.0,22,0.00,,---,0.00,VWS V14.00,2013-02-10 19:19:00,
2013-02-10 14:24:00,36.5,1.3,30.41,SSE,158,2.7,2.9,22,0.00,,---,0.00,VWS V14.00,2013-02-10 19:24:00,
2013-02-10 14:26:00,36.7,1.4,30.41,SE,135,3.6,3.6,22,0.00,,---,0.00,VWS V14.00,2013-02-10 19:26:00,
2013-02-10 14:29:00,36.1,1.0,30.41,SE,135,4.9,4.9,22,0.00,,---,0.00,VWS V14.00,2013-02-10 19:29:00,
2013-02-10 14:31:00,36.3,1.1,30.41,ESE,112,1.1,4.9,22,0.00,,---,0.00,VWS V14.00,2013-02-10 19:31:00,
2013-02-10 14:34:00,36.7,1.4,30.41,SSE,158,0.0,4.9,22,0.00,,---,0.00,VWS V14.00,2013-02-10 19:34:00,
2013-02-10 14:38:00,36.9,1.6,30.41,ESE,112,4.3,6.3,22,0.00,,---,0.00,VWS V14.00,2013-02-10 19:38:00,
2013-02-10 14:39:00,36.9,1.6,30.41,ESE,112,6.3,6.3,22,0.00,,---,0.00,VWS V14.00,2013-02-10 19:39:00,
2013-02-10 14:43:00,36.3,1.1,30.41,ESE,112,4.0,6.3,22,0.00,,---,0.00,VWS V14.00,2013-02-10 19:43:00,
2013-02-10 14:44:00,36.3,1.1,30.41,ESE,112,7.4,7.4,22,0.00,,---,0.00,VWS V14.00,2013-02-10 19:44:00,
2013-02-10 14:48:00,36.0,0.8,30.41,ESE,112,3.1,5.4,22,0.00,,---,0.00,VWS V14.00,2013-02-10 19:48:00,
2013-02-10 14:49:00,36.0,0.8,30.41,ESE,112,6.3,6.3,22,0.00,,---,0.00,VWS V14.00,2013-02-10 19:49:00,
2013-02-10 14:54:00,36.0,0.8,30.39,ESE,112,6.5,6.5,22,0.00,,---,0.00,VWS V14.00,2013-02-10 19:54:00,
2013-02-10 14:59:00,35.8,0.7,30.39,SE,135,6.3,7.2,22,0.00,,---,0.00,VWS V14.00,2013-02-10 19:59:00,
2013-02-10 15:04:00,35.8,0.7,30.39,ESE,112,5.4,7.6,22,0.00,,---,0.00,VWS V14.00,2013-02-10 20:04:00,
2013-02-10 15:05:00,35.6,0.5,30.39,SE,135,5.6,6.3,22,0.00,,---,0.00,VWS V14.00,2013-02-10 20:05:00,
2013-02-10 15:09:00,35.6,0.5,30.39,SE,135,2.0,2.7,22,0.00,,---,0.00,VWS V14.00,2013-02-10 20:09:00,
2013-02-10 15:14:00,35.4,0.4,30.39,South,180,4.0,6.0,22,0.00,,---,0.00,VWS V14.00,2013-02-10 20:14:00,
2013-02-10 15:19:00,35.4,0.4,30.39,South,180,7.4,8.1,22,0.00,,---,0.00,VWS V14.00,2013-02-10 20:19:00,
2013-02-10 15:20:00,35.2,0.2,30.39,SSE,158,2.0,7.4,22,0.00,,---,0.00,VWS V14.00,2013-02-10 20:20:00,
2013-02-10 15:21:00,35.2,0.2,30.39,ESE,112,6.3,6.3,22,0.00,,---,0.00,VWS V14.00,2013-02-10 20:21:00,
2013-02-10 15:26:00,35.2,0.2,30.39,SSE,158,3.8,4.9,22,0.00,,---,0.00,VWS V14.00,2013-02-10 20:26:00,
2013-02-10 15:27:00,35.2,0.2,30.39,SSE,158,4.3,6.0,22,0.00,,---,0.00,VWS V14.00,2013-02-10 20:27:00,
2013-02-10 15:30:00,34.9,-0.1,30.39,South,180,5.8,5.8,22,0.00,,---,0.00,VWS V14.00,2013-02-10 20:30:00,
2013-02-10 15:31:00,34.7,-0.2,30.39,South,180,3.4,5.8,22,0.00,,---,0.00,VWS V14.00,2013-02-10 20:31:00,
2013-02-10 15:36:00,35.4,0.4,30.39,SSE,158,5.8,6.9,22,0.00,,---,0.00,VWS V14.00,2013-02-10 20:36:00,
2013-02-10 15:42:00,35.6,0.5,30.39,SSW,202,4.9,4.9,22,0.00,,---,0.00,VWS V14.00,2013-02-10 20:42:00,
2013-02-10 15:43:00,35.8,0.7,30.39,SSE,158,3.4,4.9,22,0.00,,---,0.00,VWS V14.00,2013-02-10 20:43:00,
2013-02-10 15:48:00,36.0,0.8,30.39,SSW,202,2.5,2.5,22,0.00,,---,0.00,VWS V14.00,2013-02-10 20:48:00,
2013-02-10 15:49:00,36.1,1.0,30.39,SSW,202,1.6,3.1,22,0.00,,---,0.00,VWS V14.00,2013-02-10 20:49:00,
2013-02-10 15:53:00,36.0,0.8,30.39,SSW,202,3.1,3.6,22,0.00,,---,0.00,VWS V14.00,2013-02-10 20:53:00,
2013-02-10 15:54:00,36.0,0.8,30.39,SSW,202,3.1,3.1,22,0.00,,---,0.00,VWS V14.00,2013-02-10 20:54:00,
2013-02-10 15:55:00,36.0,0.8,30.39,SSW,202,3.8,3.8,22,0.00,,---,0.00,VWS V14.00,2013-02-10 20:55:00,
2013-02-10 15:59:00,35.1,0.1,30.39,South,180,6.0,6.0,22,0.00,,---,0.00,VWS V14.00,2013-02-10 20:59:00,
2013-02-10 16:00:00,35.2,0.2,30.39,South,180,3.6,6.0,22,0.00,,---,0.00,VWS V14.00,2013-02-10 21:00:00,
2013-02-10 16:01:00,35.2,0.2,30.39,South,180,3.6,3.6,22,0.00,,---,0.00,VWS V14.00,2013-02-10 21:01:00,
2013-02-10 16:05:00,35.4,0.4,30.39,SSW,202,2.7,3.4,22,0.00,,---,0.00,VWS V14.00,2013-02-10 21:05:00,
2013-02-10 16:06:00,35.6,0.5,30.39,SSE,158,4.3,4.3,22,0.00,,---,0.00,VWS V14.00,2013-02-10 21:06:00,
2013-02-10 16:07:00,35.4,0.4,30.39,SSE,158,5.8,5.8,22,0.00,,---,0.00,VWS V14.00,2013-02-10 21:07:00,
2013-02-10 16:11:00,35.6,0.5,30.39,SE,135,5.4,5.4,22,0.00,,---,0.00,VWS V14.00,2013-02-10 21:11:00,
2013-02-10 16:14:00,35.2,0.2,30.39,SSE,158,2.2,5.6,22,0.00,,---,0.00,VWS V14.00,2013-02-10 21:14:00,
2013-02-10 16:19:00,35.2,0.2,30.39,South,180,8.1,8.1,22,0.00,,---,0.00,VWS V14.00,2013-02-10 21:19:00,
2013-02-10 16:24:00,34.7,-0.2,30.39,South,180,4.7,5.6,22,0.00,,---,0.00,VWS V14.00,2013-02-10 21:24:00,
2013-02-10 16:25:00,34.7,-0.2,30.39,SSE,158,3.6,4.7,22,0.00,,---,0.00,VWS V14.00,2013-02-10 21:25:00,
2013-02-10 16:30:00,34.5,-0.4,30.39,SSW,202,3.4,3.4,22,0.00,,---,0.00,VWS V14.00,2013-02-10 21:30:00,
2013-02-10 16:33:00,34.7,-0.2,30.39,SW,225,0.0,0.0,22,0.00,,---,0.00,VWS V14.00,2013-02-10 21:33:00,
2013-02-10 16:35:00,34.7,-0.2,30.39,SSE,158,4.9,4.9,22,0.00,,---,0.00,VWS V14.00,2013-02-10 21:35:00,
2013-02-10 16:41:00,34.3,-0.6,30.39,South,180,6.0,6.0,22,0.00,,---,0.00,VWS V14.00,2013-02-10 21:41:00,
2013-02-10 16:42:00,34.5,-0.4,30.39,SSE,158,4.0,6.0,22,0.00,,---,0.00,VWS V14.00,2013-02-10 21:42:00,
2013-02-10 16:46:00,34.3,-0.6,30.39,SSW,202,2.7,2.7,22,0.00,,---,0.00,VWS V14.00,2013-02-10 21:46:00,
2013-02-10 16:47:00,34.5,-0.4,30.39,SSW,202,2.0,3.1,22,0.00,,---,0.00,VWS V14.00,2013-02-10 21:47:00,
2013-02-10 16:52:00,34.2,-0.7,30.39,South,180,2.5,2.5,22,0.00,,---,0.00,VWS V14.00,2013-02-10 21:52:00,
2013-02-10 16:53:00,34.0,-0.9,30.39,SSW,202,2.5,4.3,22,0.00,,---,0.00,VWS V14.00,2013-02-10 21:53:00,
2013-02-10 16:57:00,33.8,-1.0,30.39,SSW,202,2.7,4.3,22,0.00,,---,0.00,VWS V14.00,2013-02-10 21:57:00,
2013-02-10 17:02:00,33.4,-0.4,30.39,South,180,2.9,4.0,23,0.00,,---,0.00,VWS V14.00,2013-02-10 22:02:00,
2013-02-10 17:03:00,33.4,-0.4,30.39,South,180,0.0,2.9,23,0.00,,---,0.00,VWS V14.00,2013-02-10 22:03:00,
2013-02-10 17:05:00,33.3,-0.5,30.39,South,180,2.7,2.7,23,0.00,,---,0.00,VWS V14.00,2013-02-10 22:05:00,
2013-02-10 17:07:00,33.3,-0.5,30.36,SSW,202,3.1,4.0,23,0.00,,---,0.00,VWS V14.00,2013-02-10 22:07:00,
2013-02-10 17:13:00,32.7,-1.0,30.36,SSW,202,4.0,5.4,23,0.00,,---,0.00,VWS V14.00,2013-02-10 22:13:00,
2013-02-10 17:19:00,32.4,-1.3,30.36,SSW,202,3.6,4.3,23,0.00,,---,0.00,VWS V14.00,2013-02-10 22:19:00,
2013-02-10 17:24:00,32.0,-1.6,30.39,SSW,202,3.4,3.6,23,0.00,,---,0.00,VWS V14.00,2013-02-10 22:24:00,
2013-02-10 17:29:00,31.6,-1.9,30.39,SSW,202,2.5,2.9,23,0.00,,---,0.00,VWS V14.00,2013-02-10 22:29:00,
2013-02-10 17:34:00,31.5,-2.0,30.39,SSW,202,3.8,3.8,23,0.00,,---,0.00,VWS V14.00,2013-02-10 22:34:00,
2013-02-10 17:36:00,31.5,-2.0,30.36,SSW,202,2.9,3.8,23,0.00,,---,0.00,VWS V14.00,2013-02-10 22:36:00,
2013-02-10 17:39:00,31.3,-2.2,30.36,SSW,202,2.0,3.1,23,0.00,,---,0.00,VWS V14.00,2013-02-10 22:39:00,
2013-02-10 17:41:00,31.3,-2.2,30.36,SSW,202,2.5,3.6,23,0.00,,---,0.00,VWS V14.00,2013-02-10 22:41:00,
2013-02-10 17:46:00,31.3,-2.2,30.36,SSW,202,3.1,3.8,23,0.00,,---,0.00,VWS V14.00,2013-02-10 22:46:00,
2013-02-10 17:52:00,31.1,-2.4,30.39,SSW,202,1.6,4.3,23,0.00,,---,0.00,VWS V14.00,2013-02-10 22:52:00,
2013-02-10 17:54:00,31.1,-2.4,30.39,SSW,202,2.7,5.4,23,0.00,,---,0.00,VWS V14.00,2013-02-10 22:54:00,
2013-02-10 17:55:00,31.1,-2.4,30.39,SSW,202,3.6,3.6,23,0.00,,---,0.00,VWS V14.00,2013-02-10 22:55:00,
2013-02-10 17:59:00,31.1,-2.4,30.39,SSW,202,4.3,4.3,23,0.00,,---,0.00,VWS V14.00,2013-02-10 22:59:00,
2013-02-10 18:04:00,31.1,-2.4,30.39,SSW,202,4.9,4.9,23,0.00,,---,0.00,VWS V14.00,2013-02-10 23:04:00,
2013-02-10 18:09:00,31.1,-2.4,30.39,SSW,202,0.0,0.0,23,0.00,,---,0.00,VWS V14.00,2013-02-10 23:09:00,
2013-02-10 18:14:00,31.1,-2.4,30.39,SSW,202,4.0,4.7,23,0.00,,---,0.00,VWS V14.00,2013-02-10 23:14:00,
2013-02-10 18:16:00,31.1,-2.4,30.39,SSW,202,0.0,2.5,23,0.00,,---,0.00,VWS V14.00,2013-02-10 23:16:00,
2013-02-10 18:19:00,31.1,-2.4,30.39,SSE,158,4.7,4.7,23,0.00,,---,0.00,VWS V14.00,2013-02-10 23:19:00,
2013-02-10 18:21:00,31.1,-2.4,30.39,SSW,202,2.5,2.5,23,0.00,,---,0.00,VWS V14.00,2013-02-10 23:21:00,
2013-02-10 18:24:00,31.1,-2.4,30.39,SSW,202,3.1,3.1,23,0.00,,---,0.00,VWS V14.00,2013-02-10 23:24:00,
2013-02-10 18:25:00,31.1,-2.4,30.39,SSW,202,2.7,3.8,23,0.00,,---,0.00,VWS V14.00,2013-02-10 23:25:00,
2013-02-10 18:30:00,31.3,-0.4,30.39,SSW,202,3.8,3.8,25,0.00,,---,0.00,VWS V14.00,2013-02-10 23:30:00,
2013-02-10 18:31:00,31.3,-0.4,30.39,SSW,202,2.5,3.8,25,0.00,,---,0.00,VWS V14.00,2013-02-10 23:31:00,
2013-02-10 18:36:00,31.3,-0.4,30.39,SSW,202,3.6,3.6,25,0.00,,---,0.00,VWS V14.00,2013-02-10 23:36:00,
2013-02-10 18:41:00,31.3,-0.4,30.39,SSW,202,1.6,2.9,25,0.00,,---,0.00,VWS V14.00,2013-02-10 23:41:00,
2013-02-10 18:46:00,31.1,-0.6,30.39,SSW,202,0.0,0.0,25,0.00,,---,0.00,VWS V14.00,2013-02-10 23:46:00,
2013-02-10 18:47:00,31.1,-0.6,30.39,SSW,202,2.0,3.4,25,0.00,,---,0.00,VWS V14.00,2013-02-10 23:47:00,
2013-02-10 18:53:00,30.9,-0.8,30.41,WSW,248,0.0,0.0,25,0.00,,---,0.00,VWS V14.00,2013-02-10 23:53:00,
2013-02-10 18:55:00,30.9,-0.8,30.41,WSW,248,2.5,2.5,25,0.00,,---,0.00,VWS V14.00,2013-02-10 23:55:00,
2013-02-10 18:56:00,31.1,-0.6,30.41,WSW,248,2.7,3.1,25,0.00,,---,0.00,VWS V14.00,2013-02-10 23:56:00,
2013-02-10 18:57:00,30.9,-0.8,30.41,WSW,248,2.7,3.6,25,0.00,,---,0.00,VWS V14.00,2013-02-10 23:57:00,
2013-02-10 18:58:00,31.1,-0.6,30.41,WSW,248,4.7,4.7,25,0.00,,---,0.00,VWS V14.00,2013-02-10 23:58:00,
2013-02-10 19:03:00,31.1,-0.6,30.41,WSW,248,2.5,3.8,25,0.00,,---,0.00,VWS V14.00,2013-02-11 00:03:00,
2013-02-10 19:04:00,31.1,-0.6,30.41,SSW,202,0.0,2.5,25,0.00,,---,0.00,VWS V14.00,2013-02-11 00:04:00,
2013-02-10 19:05:00,30.9,-0.8,30.41,SSW,202,0.9,0.9,25,0.00,,---,0.00,VWS V14.00,2013-02-11 00:05:00,
2013-02-10 19:07:00,31.1,-0.6,30.36,SSW,202,2.0,2.5,25,0.00,,---,0.00,VWS V14.00,2013-02-11 00:07:00,
2013-02-10 19:10:00,30.9,-0.8,30.36,SSW,202,1.6,2.0,25,0.00,,---,0.00,VWS V14.00,2013-02-11 00:10:00,
2013-02-10 19:11:00,30.7,-0.9,30.36,SSW,202,2.0,2.9,25,0.00,,---,0.00,VWS V14.00,2013-02-11 00:11:00,
2013-02-10 19:12:00,30.7,-0.9,30.36,SSW,202,2.0,2.0,25,0.00,,---,0.00,VWS V14.00,2013-02-11 00:12:00,
2013-02-10 19:14:00,30.7,-0.9,30.36,SW,225,3.4,3.4,25,0.00,,---,0.00,VWS V14.00,2013-02-11 00:14:00,
2013-02-10 19:16:00,30.7,-0.9,30.36,SW,225,2.5,2.5,25,0.00,,---,0.00,VWS V14.00,2013-02-11 00:16:00,
2013-02-10 19:17:00,30.7,-0.9,30.36,SSW,202,2.7,2.7,25,0.00,,---,0.00,VWS V14.00,2013-02-11 00:17:00,
2013-02-10 19:19:00,30.7,-0.9,30.36,SSW,202,2.7,4.0,25,0.00,,---,0.00,VWS V14.00,2013-02-11 00:19:00,
2013-02-10 19:21:00,30.7,-0.9,30.39,SSW,202,0.0,0.0,25,0.00,,---,0.00,VWS V14.00,2013-02-11 00:21:00,
2013-02-10 19:22:00,30.7,-0.9,30.39,SSW,202,2.7,2.7,25,0.00,,---,0.00,VWS V14.00,2013-02-11 00:22:00,
2013-02-10 19:26:00,30.7,1.5,30.39,SW,225,3.6,3.6,28,0.00,,---,0.00,VWS V14.00,2013-02-11 00:26:00,
2013-02-10 19:27:00,30.7,1.5,30.39,South,180,3.6,3.6,28,0.00,,---,0.00,VWS V14.00,2013-02-11 00:27:00,
2013-02-10 19:28:00,30.9,1.7,30.39,SSW,202,2.5,3.6,28,0.00,,---,0.00,VWS V14.00,2013-02-11 00:28:00,
2013-02-10 19:29:00,30.9,1.7,30.39,SSW,202,3.4,3.4,28,0.00,,---,0.00,VWS V14.00,2013-02-11 00:29:00,
2013-02-10 19:34:00,30.9,1.7,30.39,SSW,202,1.3,3.1,28,0.00,,---,0.00,VWS V14.00,2013-02-11 00:34:00,
2013-02-10 19:35:00,30.9,1.7,30.39,SSW,202,3.8,3.8,28,0.00,,---,0.00,VWS V14.00,2013-02-11 00:35:00,
2013-02-10 19:37:00,30.9,1.7,30.39,SSW,202,2.0,3.1,28,0.00,,---,0.00,VWS V14.00,2013-02-11 00:37:00,
2013-02-10 19:39:00,30.9,1.7,30.39,SSW,202,2.2,2.9,28,0.00,,---,0.00,VWS V14.00,2013-02-11 00:39:00,
2013-02-10 19:40:00,30.9,1.7,30.39,SSW,202,2.0,3.4,28,0.00,,---,0.00,VWS V14.00,2013-02-11 00:40:00,
2013-02-10 19:43:00,30.7,1.5,30.39,SSW,202,1.1,3.1,28,0.00,,---,0.00,VWS V14.00,2013-02-11 00:43:00,
2013-02-10 19:47:00,30.7,1.5,30.39,SSW,202,2.7,2.9,28,0.00,,---,0.00,VWS V14.00,2013-02-11 00:47:00,
2013-02-10 19:48:00,30.7,1.5,30.39,SSW,202,1.3,2.7,28,0.00,,---,0.00,VWS V14.00,2013-02-11 00:48:00,
2013-02-10 19:52:00,30.6,1.4,30.39,SSW,202,0.0,2.0,28,0.00,,---,0.00,VWS V14.00,2013-02-11 00:52:00,
2013-02-10 19:53:00,30.6,1.4,30.39,SSW,202,0.0,1.1,28,0.00,,---,0.00,VWS V14.00,2013-02-11 00:53:00,
2013-02-10 19:54:00,30.6,1.4,30.39,SSW,202,0.0,0.0,28,0.00,,---,0.00,VWS V14.00,2013-02-11 00:54:00,
2013-02-10 19:56:00,30.6,1.4,30.39,SSW,202,0.0,0.0,28,0.00,,---,0.00,VWS V14.00,2013-02-11 00:56:00,
2013-02-10 19:57:00,30.6,1.4,30.39,SSW,202,1.1,1.3,28,0.00,,---,0.00,VWS V14.00,2013-02-11 00:57:00,
2013-02-10 19:59:00,30.4,1.2,30.39,SSW,202,0.0,1.6,28,0.00,,---,0.00,VWS V14.00,2013-02-11 00:59:00,
2013-02-10 20:01:00,30.2,1.0,30.39,SSW,202,2.0,3.1,28,0.00,,---,0.00,VWS V14.00,2013-02-11 01:01:00,
2013-02-10 20:02:00,30.2,1.0,30.39,SSW,202,0.0,2.0,28,0.00,,---,0.00,VWS V14.00,2013-02-11 01:02:00,
2013-02-10 20:04:00,30.2,1.0,30.39,SSW,202,1.1,3.6,28,0.00,,---,0.00,VWS V14.00,2013-02-11 01:04:00,
2013-02-10 20:06:00,30.2,1.0,30.39,SSW,202,0.0,0.0,28,0.00,,---,0.00,VWS V14.00,2013-02-11 01:06:00,
2013-02-10 20:07:00,30.2,1.0,30.39,SSW,202,2.7,2.7,28,0.00,,---,0.00,VWS V14.00,2013-02-11 01:07:00,
2013-02-10 20:08:00,30.4,1.2,30.39,SSW,202,1.3,3.1,28,0.00,,---,0.00,VWS V14.00,2013-02-11 01:08:00,
2013-02-10 20:09:00,30.2,1.0,30.39,SSW,202,4.0,4.0,28,0.00,,---,0.00,VWS V14.00,2013-02-11 01:09:00,
2013-02-10 20:11:00,30.4,1.2,30.39,SSW,202,0.0,3.4,28,0.00,,---,0.00,VWS V14.00,2013-02-11 01:11:00,
2013-02-10 20:14:00,30.2,1.0,30.39,SSW,202,0.0,0.0,28,0.00,,---,0.00,VWS V14.00,2013-02-11 01:14:00,
2013-02-10 20:17:00,30.2,1.0,30.39,SSW,202,0.0,0.9,28,0.00,,---,0.00,VWS V14.00,2013-02-11 01:17:00,
2013-02-10 20:18:00,30.2,1.0,30.39,SSW,202,0.0,0.0,28,0.00,,---,0.00,VWS V14.00,2013-02-11 01:18:00,
2013-02-10 20:20:00,30.2,1.0,30.39,SSW,202,0.0,3.1,28,0.00,,---,0.00,VWS V14.00,2013-02-11 01:20:00,
2013-02-10 20:23:00,30.2,1.0,30.39,SSW,202,0.0,0.9,28,0.00,,---,0.00,VWS V14.00,2013-02-11 01:23:00,
2013-02-10 20:26:00,30.2,1.0,30.39,SSW,202,1.6,2.9,28,0.00,,---,0.00,VWS V14.00,2013-02-11 01:26:00,
2013-02-10 20:28:00,30.2,1.0,30.39,SSW,202,0.0,0.0,28,0.00,,---,0.00,VWS V14.00,2013-02-11 01:28:00,
2013-02-10 20:29:00,30.2,1.0,30.39,SSW,202,0.0,0.0,28,0.00,,---,0.00,VWS V14.00,2013-02-11 01:29:00,
2013-02-10 20:33:00,30.4,1.2,30.39,SSW,202,0.0,0.0,28,0.00,,---,0.00,VWS V14.00,2013-02-11 01:33:00,
2013-02-10 20:34:00,30.4,1.2,30.39,SSW,202,2.2,2.2,28,0.00,,---,0.00,VWS V14.00,2013-02-11 01:34:00,
2013-02-10 20:36:00,30.4,1.2,30.39,SSW,202,0.0,2.5,28,0.00,,---,0.00,VWS V14.00,2013-02-11 01:36:00,
2013-02-10 20:37:00,30.6,1.4,30.39,SSW,202,2.0,2.7,28,0.00,,---,0.00,VWS V14.00,2013-02-11 01:37:00,
2013-02-10 20:39:00,30.6,1.4,30.39,SSW,202,2.2,2.5,28,0.00,,---,0.00,VWS V14.00,2013-02-11 01:39:00,
2013-02-10 20:40:00,30.6,2.8,30.39,SSW,202,0.0,2.2,30,0.00,,---,0.00,VWS V14.00,2013-02-11 01:40:00,
2013-02-10 20:42:00,30.4,1.2,30.39,SSW,202,0.0,0.0,28,0.00,,---,0.00,VWS V14.00,2013-02-11 01:42:00,
2013-02-10 20:44:00,30.4,1.2,30.39,SSW,202,1.3,3.8,28,0.00,,---,0.00,VWS V14.00,2013-02-11 01:44:00,
2013-02-10 20:45:00,30.4,1.2,30.39,SSW,202,0.0,1.3,28,0.00,,---,0.00,VWS V14.00,2013-02-11 01:45:00,
2013-02-10 20:47:00,30.4,1.2,30.39,SSW,202,0.0,0.0,28,0.00,,---,0.00,VWS V14.00,2013-02-11 01:47:00,
2013-02-10 20:49:00,30.4,1.2,30.39,SSW,202,0.0,0.0,28,0.00,,---,0.00,VWS V14.00,2013-02-11 01:49:00,
2013-02-10 20:50:00,30.4,2.7,30.39,SSW,202,2.2,3.1,30,0.00,,---,0.00,VWS V14.00,2013-02-11 01:50:00,
2013-02-10 20:53:00,30.6,2.8,30.39,SSW,202,2.2,2.2,30,0.00,,---,0.00,VWS V14.00,2013-02-11 01:53:00,
2013-02-10 20:55:00,30.6,2.8,30.39,SSW,202,0.0,2.5,30,0.00,,---,0.00,VWS V14.00,2013-02-11 01:55:00,
2013-02-10 20:56:00,30.7,3.0,30.39,SSW,202,0.9,2.9,30,0.00,,---,0.00,VWS V14.00,2013-02-11 01:56:00,
2013-02-10 20:59:00,30.7,3.0,30.39,SSW,202,2.5,2.7,30,0.00,,---,0.00,VWS V14.00,2013-02-11 01:59:00,
2013-02-10 21:00:00,30.7,3.0,30.39,SSW,202,2.9,3.8,30,0.00,,---,0.00,VWS V14.00,2013-02-11 02:00:00,
2013-02-10 21:01:00,30.9,3.1,30.39,SSW,202,2.7,2.9,30,0.00,,---,0.00,VWS V14.00,2013-02-11 02:01:00,
2013-02-10 21:05:00,31.1,3.3,30.39,SSW,202,0.0,0.0,30,0.00,,---,0.00,VWS V14.00,2013-02-11 02:05:00,
2013-02-10 21:06:00,31.1,3.3,30.39,SSW,202,2.9,2.9,30,0.00,,---,0.00,VWS V14.00,2013-02-11 02:06:00,
2013-02-10 21:07:00,31.1,3.3,30.39,SSW,202,2.9,2.9,30,0.00,,---,0.00,VWS V14.00,2013-02-11 02:07:00,
2013-02-10 21:08:00,31.1,3.3,30.39,SSW,202,0.0,3.6,30,0.00,,---,0.00,VWS V14.00,2013-02-11 02:08:00,
2013-02-10 21:10:00,31.1,3.3,30.39,SSW,202,0.0,0.0,30,0.00,,---,0.00,VWS V14.00,2013-02-11 02:10:00,
2013-02-10 21:11:00,31.1,3.3,30.39,SSW,202,0.0,1.3,30,0.00,,---,0.00,VWS V14.00,2013-02-11 02:11:00,
2013-02-10 21:13:00,31.1,3.3,30.39,SSW,202,0.0,1.1,30,0.00,,---,0.00,VWS V14.00,2013-02-11 02:13:00,
2013-02-10 21:15:00,31.3,3.5,30.39,SSW,202,0.0,2.9,30,0.00,,---,0.00,VWS V14.00,2013-02-11 02:15:00,
2013-02-10 21:16:00,31.3,3.5,30.39,SSW,202,0.0,1.3,30,0.00,,---,0.00,VWS V14.00,2013-02-11 02:16:00,
2013-02-10 21:18:00,31.3,3.5,30.39,SSW,202,0.0,0.0,30,0.00,,---,0.00,VWS V14.00,2013-02-11 02:18:00,
2013-02-10 21:21:00,31.5,3.6,30.39,SSW,202,0.0,0.0,30,0.00,,---,0.00,VWS V14.00,2013-02-11 02:21:00,
2013-02-10 21:23:00,31.5,3.6,30.39,SSW,202,3.4,3.4,30,0.00,,---,0.00,VWS V14.00,2013-02-11 02:23:00,
2013-02-10 21:26:00,31.5,3.6,30.39,SSW,202,0.0,0.0,30,0.00,,---,0.00,VWS V14.00,2013-02-11 02:26:00,
2013-02-10 21:29:00,31.6,3.8,30.39,SSW,202,0.0,1.6,30,0.00,,---,0.00,VWS V14.00,2013-02-11 02:29:00,
2013-02-10 21:31:00,31.6,3.8,30.39,SSW,202,1.6,2.2,30,0.00,,---,0.00,VWS V14.00,2013-02-11 02:31:00,
2013-02-10 21:32:00,31.6,3.8,30.39,SSW,202,2.7,2.7,30,0.00,,---,0.00,VWS V14.00,2013-02-11 02:32:00,
2013-02-10 21:34:00,31.6,3.8,30.39,SSW,202,1.3,1.3,30,0.00,,---,0.00,VWS V14.00,2013-02-11 02:34:00,
2013-02-10 21:36:00,31.6,3.8,30.39,SSW,202,2.7,2.7,30,0.00,,---,0.00,VWS V14.00,2013-02-11 02:36:00,
2013-02-10 21:37:00,31.8,3.9,30.39,SSW,202,0.0,2.7,30,0.00,,---,0.00,VWS V14.00,2013-02-11 02:37:00,
2013-02-10 21:38:00,31.8,3.9,30.39,SSW,202,2.5,2.5,30,0.00,,---,0.00,VWS V14.00,2013-02-11 02:38:00,
2013-02-10 21:40:00,31.8,3.9,30.39,SSW,202,0.0,2.0,30,0.00,,---,0.00,VWS V14.00,2013-02-11 02:40:00,
2013-02-10 21:41:00,31.8,3.9,30.39,SSW,202,0.0,0.0,30,0.00,,---,0.00,VWS V14.00,2013-02-11 02:41:00,
2013-02-10 21:42:00,31.8,3.9,30.39,SSW,202,1.6,1.6,30,0.00,,---,0.00,VWS V14.00,2013-02-11 02:42:00,
2013-02-10 21:43:00,31.8,3.9,30.39,SSW,202,2.2,2.2,30,0.00,,---,0.00,VWS V14.00,2013-02-11 02:43:00,
2013-02-10 21:45:00,31.8,2.4,30.39,SSW,202,1.6,3.1,28,0.00,,---,0.00,VWS V14.00,2013-02-11 02:45:00,
2013-02-10 21:47:00,31.8,2.4,30.39,SSW,202,0.0,2.5,28,0.00,,---,0.00,VWS V14.00,2013-02-11 02:47:00,
2013-02-10 21:50:00,32.0,2.6,30.39,SSW,202,0.9,2.2,28,0.00,,---,0.00,VWS V14.00,2013-02-11 02:50:00,
2013-02-10 21:52:00,32.2,2.8,30.36,SSW,202,2.0,2.5,28,0.00,,---,0.00,VWS V14.00,2013-02-11 02:52:00,
2013-02-10 21:53:00,32.2,2.8,30.36,SSW,202,2.5,2.5,28,0.00,,---,0.00,VWS V14.00,2013-02-11 02:53:00,
2013-02-10 21:55:00,32.2,2.8,30.36,SSW,202,2.9,3.1,28,0.00,,---,0.00,VWS V14.00,2013-02-11 02:55:00,
2013-02-10 21:57:00,32.2,2.8,30.36,SSW,202,2.0,2.7,28,0.00,,---,0.00,VWS V14.00,2013-02-11 02:57:00,
2013-02-10 22:01:00,32.2,2.8,30.36,SSW,202,0.0,0.0,28,0.00,,---,0.00,VWS V14.00,2013-02-11 03:01:00,
2013-02-10 22:02:00,32.2,2.8,30.36,SSW,202,1.3,2.5,28,0.00,,---,0.00,VWS V14.00,2013-02-11 03:02:00,
2013-02-10 22:03:00,32.4,2.9,30.36,SSW,202,0.0,2.7,28,0.00,,---,0.00,VWS V14.00,2013-02-11 03:03:00,
2013-02-10 22:05:00,32.4,2.9,30.36,SSW,202,2.7,2.7,28,0.00,,---,0.00,VWS V14.00,2013-02-11 03:05:00,
2013-02-10 22:08:00,32.4,2.9,30.36,SSW,202,0.0,0.0,28,0.00,,---,0.00,VWS V14.00,2013-02-11 03:08:00,
2013-02-10 22:11:00,32.4,2.9,30.36,SSW,202,0.0,1.6,28,0.00,,---,0.00,VWS V14.00,2013-02-11 03:11:00,
2013-02-10 22:12:00,32.4,2.9,30.36,SSW,202,0.0,0.0,28,0.00,,---,0.00,VWS V14.00,2013-02-11 03:12:00,
2013-02-10 22:14:00,32.4,2.9,30.36,SSW,202,1.1,1.1,28,0.00,,---,0.00,VWS V14.00,2013-02-11 03:14:00,
2013-02-10 22:15:00,32.5,3.1,30.36,SSW,202,0.0,2.9,28,0.00,,---,0.00,VWS V14.00,2013-02-11 03:15:00,
2013-02-10 22:17:00,32.5,3.1,30.36,SSW,202,0.0,0.0,28,0.00,,---,0.00,VWS V14.00,2013-02-11 03:17:00,
2013-02-10 22:20:00,32.5,3.1,30.36,SSW,202,0.0,0.0,28,0.00,,---,0.00,VWS V14.00,2013-02-11 03:20:00,
2013-02-10 22:21:00,32.5,3.1,30.36,SSW,202,0.0,0.0,28,0.00,,---,0.00,VWS V14.00,2013-02-11 03:21:00,
2013-02-10 22:25:00,32.7,3.2,30.36,SSW,202,0.0,1.1,28,0.00,,---,0.00,VWS V14.00,2013-02-11 03:25:00,
2013-02-10 22:26:00,32.7,3.2,30.36,SSW,202,0.0,0.0,28,0.00,,---,0.00,VWS V14.00,2013-02-11 03:26:00,
2013-02-10 22:27:00,32.7,3.2,30.36,SSW,202,0.0,0.0,28,0.00,,---,0.00,VWS V14.00,2013-02-11 03:27:00,
2013-02-10 22:28:00,32.7,3.2,30.36,SSW,202,0.0,0.0,28,0.00,,---,0.00,VWS V14.00,2013-02-11 03:28:00,
2013-02-10 22:30:00,32.7,3.2,30.36,SSW,202,0.0,0.0,28,0.00,,---,0.00,VWS V14.00,2013-02-11 03:30:00,
2013-02-10 22:34:00,32.7,4.7,30.36,SSW,202,1.3,2.0,30,0.00,,---,0.00,VWS V14.00,2013-02-11 03:34:00,
2013-02-10 22:35:00,32.7,4.7,30.36,SSW,202,1.3,3.1,30,0.00,,---,0.00,VWS V14.00,2013-02-11 03:35:00,
2013-02-10 22:36:00,32.7,4.7,30.33,SSW,202,0.0,2.0,30,0.00,,---,0.00,VWS V14.00,2013-02-11 03:36:00,
2013-02-10 22:39:00,32.7,4.7,30.33,SSW,202,0.0,0.0,30,0.00,,---,0.00,VWS V14.00,2013-02-11 03:39:00,
2013-02-10 22:40:00,32.7,4.7,30.33,SSW,202,0.0,0.0,30,0.00,,---,0.00,VWS V14.00,2013-02-11 03:40:00,
2013-02-10 22:41:00,32.7,4.7,30.33,SSW,202,2.7,2.9,30,0.00,,---,0.00,VWS V14.00,2013-02-11 03:41:00,
2013-02-10 22:42:00,32.9,4.9,30.33,SSW,202,1.1,2.7,30,0.00,,---,0.00,VWS V14.00,2013-02-11 03:42:00,
2013-02-10 22:46:00,33.1,5.0,30.33,SSW,202,2.2,2.2,30,0.00,,---,0.00,VWS V14.00,2013-02-11 03:46:00,
2013-02-10 22:47:00,33.1,5.0,30.33,SSW,202,2.0,2.2,30,0.00,,---,0.00,VWS V14.00,2013-02-11 03:47:00,
2013-02-10 22:48:00,33.1,5.0,30.33,SSW,202,0.0,2.2,30,0.00,,---,0.00,VWS V14.00,2013-02-11 03:48:00,
2013-02-10 22:50:00,33.1,5.0,30.33,SSW,202,0.9,1.6,30,0.00,,---,0.00,VWS V14.00,2013-02-11 03:50:00,
2013-02-10 22:52:00,33.1,5.0,30.30,SSW,202,0.0,2.2,30,0.00,,---,0.00,VWS V14.00,2013-02-11 03:52:00,
2013-02-10 22:53:00,33.1,5.0,30.30,SSW,202,0.0,0.0,30,0.00,,---,0.00,VWS V14.00,2013-02-11 03:53:00,
2013-02-10 22:54:00,33.1,5.0,30.30,SSW,202,0.0,0.0,30,0.00,,---,0.00,VWS V14.00,2013-02-11 03:54:00,
2013-02-10 22:59:00,33.3,5.2,30.30,SSW,202,0.0,0.0,30,0.00,,---,0.00,VWS V14.00,2013-02-11 03:59:00,
2013-02-10 23:00:00,33.3,5.2,30.30,SSW,202,2.5,2.5,30,0.00,,---,0.00,VWS V14.00,2013-02-11 04:00:00,
2013-02-10 23:01:00,33.3,5.2,30.30,SSW,202,0.0,2.5,30,0.00,,---,0.00,VWS V14.00,2013-02-11 04:01:00,
2013-02-10 23:03:00,33.4,5.3,30.30,SSW,202,0.0,0.0,30,0.00,,---,0.00,VWS V14.00,2013-02-11 04:03:00,
2013-02-10 23:04:00,33.4,5.3,30.30,SSW,202,0.0,1.3,30,0.00,,---,0.00,VWS V14.00,2013-02-11 04:04:00,
2013-02-10 23:06:00,33.4,5.3,30.33,SSW,202,0.0,0.0,30,0.00,,---,0.00,VWS V14.00,2013-02-11 04:06:00,
2013-02-10 23:07:00,33.4,5.3,30.33,SSW,202,0.0,0.0,30,0.00,,---,0.00,VWS V14.00,2013-02-11 04:07:00,
2013-02-10 23:09:00,33.4,5.3,30.33,SSW,202,0.0,3.1,30,0.00,,---,0.00,VWS V14.00,2013-02-11 04:09:00,
2013-02-10 23:12:00,33.6,5.5,30.33,SSW,202,2.2,2.2,30,0.00,,---,0.00,VWS V14.00,2013-02-11 04:12:00,
2013-02-10 23:14:00,33.6,5.5,30.33,SSW,202,0.9,1.1,30,0.00,,---,0.00,VWS V14.00,2013-02-11 04:14:00,
2013-02-10 23:15:00,33.6,5.5,30.33,SSW,202,0.0,0.9,30,0.00,,---,0.00,VWS V14.00,2013-02-11 04:15:00,
2013-02-10 23:17:00,33.6,5.5,30.33,SSW,202,0.0,2.0,30,0.00,,---,0.00,VWS V14.00,2013-02-11 04:17:00,
2013-02-10 23:18:00,33.6,5.5,30.33,SSW,202,1.3,2.0,30,0.00,,---,0.00,VWS V14.00,2013-02-11 04:18:00,
2013-02-10 23:21:00,33.8,5.7,30.33,SSW,202,0.0,2.9,30,0.00,,---,0.00,VWS V14.00,2013-02-11 04:21:00,
2013-02-10 23:22:00,33.8,5.7,30.33,SSW,202,0.0,0.0,30,0.00,,---,0.00,VWS V14.00,2013-02-11 04:22:00,
2013-02-10 23:23:00,33.8,5.7,30.33,SSW,202,1.3,1.3,30,0.00,,---,0.00,VWS V14.00,2013-02-11 04:23:00,
2013-02-10 23:26:00,34.0,5.8,30.33,SSW,202,2.7,2.7,30,0.00,,---,0.00,VWS V14.00,2013-02-11 04:26:00,
2013-02-10 23:29:00,34.0,5.8,30.33,SSW,202,0.0,1.6,30,0.00,,---,0.00,VWS V14.00,2013-02-11 04:29:00,
2013-02-10 23:31:00,34.2,6.0,30.33,SSW,202,3.4,4.3,30,0.00,,---,0.00,VWS V14.00,2013-02-11 04:31:00,
2013-02-10 23:34:00,34.3,6.9,30.33,SSW,202,2.7,2.7,31,0.00,,---,0.00,VWS V14.00,2013-02-11 04:34:00,
2013-02-10 23:35:00,34.3,6.9,30.33,WSW,248,2.5,2.9,31,0.00,,---,0.00,VWS V14.00,2013-02-11 04:35:00,
2013-02-10 23:36:00,34.3,6.9,30.33,SSW,202,3.1,3.8,31,0.00,,---,0.00,VWS V14.00,2013-02-11 04:36:00,
2013-02-10 23:40:00,34.5,7.0,30.33,SSW,202,0.0,2.9,31,0.00,,---,0.00,VWS V14.00,2013-02-11 04:40:00,
2013-02-10 23:41:00,34.5,7.0,30.33,SSW,202,2.5,2.9,31,0.00,,---,0.00,VWS V14.00,2013-02-11 04:41:00,
2013-02-10 23:42:00,34.5,7.0,30.33,SSW,202,0.0,2.7,31,0.00,,---,0.00,VWS V14.00,2013-02-11 04:42:00,
2013-02-10 23:46:00,34.7,7.2,30.33,West,270,0.0,3.8,31,0.00,,---,0.00,VWS V14.00,2013-02-11 04:46:00,
2013-02-10 23:47:00,34.5,7.0,30.33,WSW,248,0.0,0.0,31,0.00,,---,0.00,VWS V14.00,2013-02-11 04:47:00,
2013-02-10 23:49:00,34.5,7.0,30.33,SSW,202,3.1,3.1,31,0.00,,---,0.00,VWS V14.00,2013-02-11 04:49:00,
2013-02-10 23:51:00,34.7,7.2,30.33,SSW,202,0.0,3.1,31,0.00,,---,0.00,VWS V14.00,2013-02-11 04:51:00,
2013-02-10 23:52:00,34.9,7.3,30.33,SSW,202,0.9,0.9,31,0.00,,---,0.00,VWS V14.00,2013-02-11 04:52:00,
2013-02-10 23:57:00,35.1,7.5,30.33,WSW,248,3.6,4.0,31,0.00,,---,0.00,VWS V14.00,2013-02-11 04:57:00,
2013-02-10 23:59:00,35.1,7.5,30.33,SSW,202,3.4,3.6,31,0.00,,---,0.00,VWS V14.00,2013-02-11 04:59:00,